Weather History for McCall, ID

Change the Weather History Date:

Monday, November 19, 2012

  Actual Average Record
Temperature  
Mean Temperature 39 °F 27 °F  
Max Temperature 44 °F 35 °F 57 °F (1936)
Min Temperature 33 °F 19 °F -4 °F (1985)
Degree Days  
Heating Degree Days 26 38  
Month to date heating degree days 588 646  
Since 1 July heating degree days 1677 2189  
Cooling Degree Days 0 0  
Month to date cooling degree days 0 0  
Year to date cooling degree days 172 25  
Moisture  
Dew Point 32 °F    
Average Humidity 80    
Maximum Humidity 89    
Minimum Humidity 70    
Precipitation  
Precipitation 0.17 in 0.09 in 1.83 in (1946)
Month to date precipitation 1.40 1.89  
Year to date precipitation 22.93 17.21  
Sea Level Pressure  
Sea Level Pressure 30.06 in    
Wind  
Wind Speed 11 mph (SSE)    
Max Wind Speed 24 mph    
Max Gust Speed 32 mph    
Visibility 9 miles    
Events Rain , Snow    
T = Trace of Precipitation, MM = Missing Value Source: NWS Daily Summary

Daily Weather History Graph

Daily Weather History Graph

Search for Another Location

Airport:

Trip Planner

Search our weather history database for the weather conditions in past years. The results will help you decide how hot, cold, wet, or windy it might be!

Date:

Astronomy

Nov. 19, 2012 Rise Set
Actual Time 7:47 AM MST 5:11 PM MST
Civil Twilight 7:15 AM MST 5:43 PM MST
Nautical Twilight 6:39 AM MST 6:19 PM MST
Astronomical Twilight 6:05 AM MST 6:54 PM MST
Moon 12:47 PM MST (11/19) 11:51 PM MST (11/19)
Length of Visible Light 10h 27m
Length of Day
9h 23m
Waxing Crescent, 41% of the Moon is Illuminated
Nov 19
Waxing Crescent
Nov 20
First Quarter
Nov 28
Full
Dec 6
Last Quarter
Dec 13
New

Hourly Weather History & Observations

Time (MST) Temp. Windchill Dew Point Humidity Pressure Visibility Wind Dir Wind Speed Gust Speed Precip Events Conditions
12:51 AM 33.1 °F 26.9 °F 28.0 °F 82% 30.07 in 10.0 mi SSE 6.9 mph - 0.00 in   Overcast
1:06 AM 33.8 °F 27.7 °F 28.4 °F 81% 30.02 in 2.5 mi SSE 6.9 mph - 0.00 in Snow Light Snow
1:12 AM 33.8 °F 28.6 °F 28.4 °F 81% 30.02 in 6.0 mi SSE 5.8 mph - 0.00 in Snow Light Snow
1:39 AM 33.8 °F 25.8 °F 28.4 °F 81% 30.02 in 10.0 mi South 10.4 mph - 0.00 in   Overcast
1:51 AM 33.1 °F 24.9 °F 28.9 °F 85% 30.06 in 10.0 mi SSE 10.4 mph - 0.00 in   Overcast
2:51 AM 34.0 °F 31.0 °F 28.9 °F 82% 30.07 in 9.0 mi SSE 3.5 mph - 0.00 in Snow Light Snow
3:18 AM 33.8 °F 27.7 °F 28.4 °F 81% 30.04 in 4.0 mi SSE 6.9 mph - 0.00 in Snow Light Snow
3:26 AM 33.8 °F 29.6 °F 28.4 °F 81% 30.04 in 8.0 mi ESE 4.6 mph - 0.00 in Snow Light Snow
3:51 AM 35.1 °F 29.3 °F 28.0 °F 76% 30.07 in 10.0 mi SE 6.9 mph - 0.00 in   Overcast
4:51 AM 34.0 °F - 28.9 °F 82% 30.08 in 10.0 mi Calm Calm - N/A   Overcast
5:51 AM 35.1 °F 27.9 °F 28.9 °F 78% 30.09 in 10.0 mi SSE 9.2 mph - N/A   Overcast
6:51 AM 35.1 °F 27.9 °F 30.0 °F 82% 30.11 in 10.0 mi South 9.2 mph - N/A   Overcast
7:51 AM 34.0 °F 28.8 °F 30.0 °F 85% 30.12 in 10.0 mi South 5.8 mph - N/A   Overcast
8:51 AM 36.0 °F 33.3 °F 30.9 °F 82% 30.14 in 10.0 mi Variable 3.5 mph - N/A   Overcast
9:33 AM 35.6 °F 28.0 °F 30.2 °F 81% 30.08 in 10.0 mi SE 10.4 mph - N/A   Overcast
9:51 AM 37.0 °F 29.3 °F 30.9 °F 79% 30.13 in 10.0 mi SSE 11.5 mph 20.7 mph N/A   Overcast
10:51 AM 39.0 °F 30.3 °F 32.0 °F 76% 30.11 in 10.0 mi SSE 16.1 mph 26.5 mph N/A   Overcast
11:51 AM 39.9 °F 31.4 °F 30.9 °F 70% 30.11 in 10.0 mi SSE 16.1 mph 23.0 mph N/A   Overcast
12:51 PM 41.0 °F 31.6 °F 32.0 °F 70% 30.08 in 10.0 mi SSE 20.7 mph 29.9 mph N/A   Overcast
1:51 PM 41.0 °F 31.9 °F 32.0 °F 70% 30.08 in 10.0 mi SSE 19.6 mph 29.9 mph N/A   Overcast
2:51 PM 39.9 °F 31.8 °F 34.0 °F 79% 30.07 in 10.0 mi SSE 15.0 mph 27.6 mph 0.00 in Rain Light Rain
3:11 PM 39.2 °F 31.2 °F 33.8 °F 81% 30.03 in 10.0 mi SSE 13.8 mph 25.3 mph 0.00 in Rain Light Rain
3:51 PM 41.0 °F 34.3 °F 34.0 °F 76% 30.05 in 10.0 mi SSE 11.5 mph - 0.00 in Rain Light Rain
4:44 PM 39.2 °F 32.5 °F 35.6 °F 87% 30.02 in 10.0 mi South 10.4 mph - 0.00 in Rain Light Rain
4:51 PM 39.9 °F 32.9 °F 34.0 °F 79% 30.06 in 10.0 mi SSE 11.5 mph - 0.00 in Rain Light Rain
5:07 PM 39.2 °F 33.0 °F 35.6 °F 87% 30.03 in 10.0 mi SSE 9.2 mph - 0.00 in Rain Light Rain
5:24 PM 39.2 °F 31.2 °F 35.6 °F 87% 30.03 in 10.0 mi SSE 13.8 mph 21.9 mph 0.01 in Rain Light Rain
5:51 PM 39.9 °F 33.4 °F 36.0 °F 86% 30.06 in 9.0 mi SSE 10.4 mph - 0.04 in Rain Light Rain
6:51 PM 39.0 °F 32.8 °F 36.0 °F 89% 30.08 in 9.0 mi SSE 9.2 mph - 0.07 in Rain Light Rain
7:51 PM 39.9 °F 32.1 °F 36.0 °F 86% 30.07 in 10.0 mi SSE 13.8 mph 19.6 mph 0.04 in Rain Light Rain
8:15 PM 39.2 °F 31.2 °F 35.6 °F 87% 30.03 in 10.0 mi SE 13.8 mph 24.2 mph 0.00 in Rain Light Rain
8:51 PM 39.9 °F 32.1 °F 36.0 °F 86% 30.06 in 10.0 mi SE 13.8 mph 21.9 mph 0.02 in Rain Light Rain
9:51 PM 41.0 °F 33.1 °F 36.0 °F 82% 30.04 in 10.0 mi SE 15.0 mph 23.0 mph 0.00 in   Overcast
10:51 PM 43.0 °F 35.7 °F 35.1 °F 74% 30.01 in 10.0 mi SSE 15.0 mph 24.2 mph N/A   Overcast
11:51 PM 43.0 °F 35.1 °F 35.1 °F 74% 30.00 in 10.0 mi SSE 17.3 mph 24.2 mph 0.00 in Rain Light Rain